Flag for United Kingdom Past Weather in Newport (Isle of Wight), England, United Kingdom — Yesterday and Last 2 Weeks

Now
60 °F

Cool.


Feels Like: 60 °F
Forecast: 58 / 69 °F
Wind: 7 mph from Northwest

Location: Saint Catherine's Point

Current Time: Jul 30, 2016 at 3:05:20 AM

Latest Report: Jul 30, 2016 at 2:00 AM


Visibility: N/A

Pressure: 29.92 "Hg

Humidity: 89%

Dew Point: 57 °F

Location of Newport (Isle of Wight)Location

Past Weather in Newport (Isle of Wight) — Graph

°F

Newport (Isle of Wight) Temperature Yesterday

Maximum temperature yesterday: 64 °F (at 4:00 PM)
Minimum temperature yesterday: 61 °F (at 5:00 AM)
Average temperature yesterday: 62 °F

High & Low Weather Summary for the Past Weeks

 TemperatureHumidityPressure
High78 °F (Jul 19, 5:00 PM)100% (Jul 20, 11:00 AM)30.37 "Hg (Jul 20, 11:00 AM)
Low54 °F (Jul 15, 3:00 AM)63% (Jul 19, 6:00 PM)29.76 "Hg (Jul 20, 3:00 AM)
Average64 °F87%30.10 "Hg
* Reported Jul 15 1:00 AM — Jul 30 1:00 AM, Newport (Isle of Wight), Weather by CustomWeather, © 2016

Note: Actual official high and low records may vary slightly from our data, if they occured in-between our weather recording intervals... More about our weather records

Advertising

Newport (Isle of Wight) Weather History for the Previous 24 Hours

Scroll right to see more
 ConditionsComfort  
Time TempWeatherWind HumidityBarometerVisibility
1:00 AM
Sat, Jul 30
60 °FCool.6 mph85%29.92 "HgN/A
12:00 AM62 °FCool.7 mph94%29.92 "HgN/A
11:00 PM
Fri, Jul 29
62 °FCool.13 mph93%29.92 "HgN/A
10:00 PM62 °FCool.13 mph92%29.91 "HgN/A
9:00 PM61 °FCool.17 mph92%29.90 "HgN/A
8:00 PM62 °FCool.18 mph92%29.90 "HgN/A
7:00 PM62 °FCool.20 mph88%29.90 "HgN/A
6:00 PM62 °FMild.18 mph88%29.90 "HgN/A
5:00 PM64 °FMild.21 mph88%29.90 "HgN/A
4:00 PM64 °FMild.22 mph84%29.90 "HgN/A
3:00 PM64 °FMild.21 mph86%29.90 "HgN/A
2:00 PM64 °FMild.20 mph85%29.90 "HgN/A
1:00 PM64 °FMild.18 mph85%29.89 "HgN/A
12:00 PM64 °FMild.18 mph86%29.90 "HgN/A
11:00 AM64 °FMild.17 mph89%29.90 "HgN/A
10:00 AM63 °FMild.17 mph91%29.89 "HgN/A
9:00 AM62 °FCool.17 mph91%29.89 "HgN/A
8:00 AM62 °FCool.18 mph94%29.89 "HgN/A
7:00 AM61 °FCool.17 mph94%29.89 "HgN/A
6:00 AM61 °FCool.20 mph94%29.88 "HgN/A
5:00 AM61 °FCool.21 mph93%29.88 "HgN/A
4:00 AM61 °FCool.22 mph92%29.88 "HgN/A
Weather by CustomWeather, © 2016

See weather overviewHow to use our weather pages